Temperature
6 5 4 5 5 6 6 5 5 6 6 5 5 5 5 4 4 4 4 5 5 6 6 7 7 7 7 7 7 7 7 7 7 7 7 7 7 7 7 7 7 7 8 8
5 4 5 5 5 5 5 5 5 5 5 5 4 4 4 4 3 4 4 4 5 6 6 6 6 6 6 6 7 7 7 7 7 7 7 7 7 7 7 7 7 7 7 7
5 5 5 5 5 5 5 5 5 5 5 4 4 4 4 3 3 3 4 4 5 5 6 6 6 6 6 6 6 6 6 6 6 6 6 6 6 6 6 6 6 6 6 6
4 5 5 5 5 4 5 5 4 4 4 3 4 4 4 3 3 2 3 3 4 4 5 5 6 6 5 5 5 6 6 6 6 5 6 6 6 5 6 6 6 6 6 6
4 4 5 5 5 4 4 4 4 4 3 3 3 3 4 2 3 3 2 3 4 4 4 5 5 5 5 5 5 5 5 5 5 5 5 5 5 5 5 5 5 5 5 5
4 4 4 4 4 4 3 3 3 2 2 3 3 3 4 2 3 3 3 3 3 4 4 4 4 5 5 4 4 4 5 5 5 4 4 4 4 4 4 5 5 5 5 5
4 4 4 4 4 4 3 3 3 3 3 3 2 2 3 3 2 2 2 3 3 3 3 4 4 4 4 4 4 4 4 4 4 4 4 4 4 4 4 4 4 4 4 4
3 4 3 3 3 3 3 3 4 4 3 2 2 2 3 2 2 2 2 3 3 3 3 3 3 3 4 4 4 4 4 4 4 4 4 4 4 3 3 3 3 4 4 4
3 3 3 3 3 3 3 2 2 2 1 1 1 1 1 1 1 1 1 2 2 3 3 3 3 3 3 3 3 3 3 3 3 3 3 3 3 3 3 3 3 3 3 3
2 2 2 2 3 2 2 1 1 2 2 2 2 1 2 2 2 1 0 1 2 2 3 3 3 3 3 3 3 3 3 3 3 3 2 2 2 3 2 2 2 3 3 3
2 1 1 1 1 2 1 1 1 0 1 1 1 3 2 2 1 1 0 1 1 2 2 2 2 2 2 2 2 2 2 2 2 2 2 2 2 2 2 2 2 2 2 2
1 0 0 1 1 1 1 1 0 1 1 -1 0 2 1 -0 -0 -0 0 1 1 2 2 2 2 2 2 2 2 2 2 2 2 2 2 2 1 1 1 1 1 1 1 1
0 0 1 2 1 -0 -0 -1 -1 -1 -1 -2 -0 2 -0 -1 -1 -0 0 1 1 1 1 1 1 1 1 1 1 1 1 1 1 1 1 1 1 1 1 1 1 1 1 1
1 -0 1 2 2 0 -0 -1 -1 -1 -1 -1 -0 1 0 -0 -1 -1 0 1 1 1 1 1 1 1 1 1 1 1 1 1 1 1 1 1 1 1 1 0 0 0 0 0
-0 -1 -1 -1 -0 -1 -1 -0 -1 -1 -1 -1 0 -1 0 -0 -2 -1 -1 -0 -0 -0 -0 -0 -0 -0 0 0 0 0 0 0 0 0 0 0 -0 -0 -0 -0 -0 -0 -0 -0
-1 -1 -2 -2 -1 -1 -1 -1 -1 -1 -1 -2 -1 -1 -1 -2 -2 -2 -2 -2 -2 -2 -1 -1 -1 -1 -1 -0 -0 -0 -0 -0 -1 -1 -1 -1 -1 -1 -1 -1 -1 -1 -1 -1
-2 -2 -2 -2 -2 -2 -1 -1 -1 -2 -2 -2 -1 -0 -2 -3 -4 -4 -3 -3 -3 -3 -2 -2 -2 -2 -2 -1 -1 -1 -1 -1 -1 -1 -1 -2 -2 -2 -2 -2 -2 -2 -2 -2
-3 -3 -3 -3 -2 -1 -0 -3 -3 -2 -3 -4 -3 -3 -4 -4 -4 -4 -4 -4 -4 -4 -3 -3 -3 -2 -2 -2 -2 -2 -2 -2 -2 -2 -2 -2 -2 -2 -2 -3 -3 -3 -3 -3
-3 -3 -3 -3 -3 -2 -2 -3 -4 -4 -3 -4 -4 -4 -4 -5 -5 -4 -4 -4 -4 -4 -4 -4 -4 -3 -3 -3 -3 -3 -3 -3 -3 -3 -3 -3 -3 -3 -3 -3 -3 -3 -3 -3
-4 -4 -3 -4 -3 -2 -2 -4 -5 -4 -3 -4 -5 -5 -5 -5 -4 -4 -4 -4 -4 -4 -4 -4 -4 -4 -4 -4 -4 -4 -3 -3 -3 -3 -3 -4 -4 -4 -4 -4 -4 -4 -4 -4
-5 -5 -4 -4 -4 -3 -4 -6 -4 -3 -2 -4 -4 -5 -6 -6 -5 -4 -4 -5 -5 -5 -5 -5 -5 -4 -5 -5 -5 -5 -4 -4 -4 -4 -4 -4 -5 -5 -5 -5 -5 -5 -5 -5
-5 -5 -5 -5 -4 -3 -5 -6 -4 -3 -4 -4 -4 -5 -5 -5 -5 -5 -5 -5 -5 -5 -5 -5 -5 -5 -5 -5 -5 -5 -5 -5 -5 -5 -5 -5 -5 -5 -5 -5 -5 -5 -6 -6
-6 -5 -5 -5 -3 -4 -5 -4 -4 -4 -5 -5 -5 -5 -5 -6 -6 -6 -6 -6 -6 -6 -6 -6 -6 -6 -6 -6 -6 -6 -6 -6 -6 -6 -6 -6 -6 -6 -6 -6 -6 -6 -6 -6
-7 -7 -6 -7 -6 -6 -5 -5 -4 -5 -5 -5 -5 -6 -6 -6 -7 -7 -7 -7 -7 -7 -7 -7 -7 -7 -7 -7 -7 -7 -7 -7 -7 -7 -7 -7 -7 -7 -7 -7 -7 -7 -7 -7
-6 -8 -7 -7 -7 -7 -6 -5 -5 -5 -6 -6 -6 -7 -7 -7 -7 -8 -8 -8 -8 -8 -8 -8 -8 -8 -8 -8 -8 -8 -8 -8 -8 -8 -8 -8 -8 -8 -8 -8 -8 -8 -8 -8
-9 -8 -7 -5 -6 -7 -6 -6 -6 -6 -7 -7 -7 -8 -8 -8 -9 -9 -9 -9 -9 -9 -9 -9 -9 -9 -9 -9 -9 -9 -9 -9 -9 -9 -9 -9 -9 -9 -9 -9 -9 -8 -9 -8
Wind_Speed
2 3 4 7 7 4 4 4 5 5 2 2 7 10 9 4 4 5 5 5 5 6 4 3 2 2 2 1 3 3 4 3 3 3 3 3 2 2 2 2 3 5 6 7
3 4 6 4 3 2 4 4 5 5 2 3 5 10 8 6 5 5 6 6 6 5 3 3 2 1 2 3 4 4 4 4 4 3 3 2 2 2 2 2 2 3 5 6
6 3 2 4 3 3 4 6 6 5 4 2 3 7 5 4 3 4 4 5 5 5 6 4 3 3 2 2 4 5 4 4 4 4 3 2 2 1 1 2 1 2 4 5
4 3 2 3 4 5 6 4 5 4 2 4 0 5 7 4 5 5 6 5 6 5 5 4 3 3 3 4 3 4 4 4 4 4 5 5 4 3 3 2 2 2 3 5
4 2 3 5 5 5 4 0 2 3 3 3 2 4 7 2 6 7 6 6 6 5 5 4 4 4 3 2 2 3 4 4 4 5 6 6 4 3 2 2 3 2 2 3
3 2 3 4 2 4 3 3 3 2 2 5 6 6 7 5 7 5 4 5 5 5 4 4 3 2 2 1 1 1 3 4 4 5 6 6 6 5 4 4 4 3 2 2
3 3 1 2 2 2 3 4 2 3 2 7 3 5 9 6 6 6 6 5 5 4 3 3 2 2 2 2 2 2 3 4 4 5 5 6 6 6 7 6 5 4 3 2
3 5 4 2 4 5 5 6 5 5 5 5 2 8 7 5 4 4 4 4 3 3 3 3 4 3 3 3 3 3 3 3 4 5 5 5 5 5 5 5 5 5 4 4
5 5 0 1 2 6 5 5 3 4 1 4 6 7 8 3 3 3 3 3 3 3 3 3 3 3 3 3 4 4 4 4 4 4 4 4 5 5 5 4 4 4 3 4
4 3 2 1 2 1 4 6 4 4 3 6 7 6 6 5 5 4 4 4 4 3 3 3 3 3 3 3 3 3 3 4 4 4 4 4 4 4 4 4 5 4 4 4
2 3 2 1 6 7 5 4 4 4 4 5 5 8 6 7 6 6 6 5 4 4 4 4 3 3 2 2 2 3 3 3 3 4 4 4 4 4 4 4 5 5 4 5
2 3 3 6 3 3 5 7 7 6 6 5 4 8 3 5 5 5 6 5 4 4 3 3 3 2 2 2 3 3 3 3 4 4 4 4 4 4 4 5 5 5 5 5
3 3 1 3 1 0 3 4 5 3 3 5 6 8 2 2 4 4 5 6 5 4 3 3 2 2 3 3 3 4 4 4 4 3 4 4 4 4 5 5 5 5 5 5
3 4 6 8 5 4 5 6 7 6 5 7 11 11 9 7 7 7 6 6 5 5 4 3 3 3 4 3 4 4 4 4 3 3 4 5 5 5 5 5 5 5 5 5
3 4 5 7 5 4 7 9 10 12 11 11 11 11 14 9 7 7 6 4 4 5 5 5 4 4 4 4 4 4 4 4 3 3 4 5 5 4 4 4 4 4 4 5
2 2 2 5 5 6 9 12 13 14 11 12 12 15 11 6 4 5 5 5 5 6 6 5 4 4 4 5 5 5 4 4 3 4 5 4 3 4 4 4 4 4 4 4
4 3 2 5 3 3 9 10 13 9 9 9 13 13 6 4 5 5 5 4 5 6 5 5 5 5 5 5 5 5 5 4 3 4 4 3 3 4 4 3 4 4 4 4
5 4 2 2 1 8 7 1 5 8 7 8 8 7 4 4 4 4 4 4 5 6 6 5 5 5 5 5 4 4 4 3 3 3 3 3 3 3 3 3 4 4 4 4
5 5 3 2 4 8 7 3 3 5 7 6 8 7 5 2 3 4 3 2 3 5 5 5 5 5 5 5 4 3 3 3 2 3 3 3 3 3 3 4 4 4 4 4
2 3 4 3 4 7 6 2 2 2 5 4 5 6 4 1 3 5 3 3 4 4 5 5 5 5 4 4 3 3 3 3 3 4 4 3 3 3 4 4 4 3 3 4
3 3 6 6 6 8 6 2 3 3 6 2 3 3 2 3 4 3 3 3 4 5 5 5 5 4 4 4 3 3 4 4 5 4 4 3 3 3 3 3 3 2 3 3
7 6 6 5 6 9 3 5 6 6 2 1 1 1 2 3 3 3 3 4 5 5 6 6 5 5 5 5 3 4 5 5 4 4 4 3 3 2 2 2 2 2 2 3
7 8 6 9 9 4 5 5 3 1 2 2 1 1 1 2 3 3 3 3 4 5 5 5 5 6 6 5 4 4 6 5 4 3 4 4 4 3 2 2 2 2 2 2
4 3 4 5 8 5 5 4 3 2 2 2 1 1 1 2 3 3 3 3 4 4 5 5 5 5 6 6 5 5 5 5 4 4 4 4 3 3 3 2 2 2 2 2
5 5 4 6 6 5 5 4 3 2 1 1 2 2 1 1 3 3 3 3 3 4 4 4 4 5 6 6 6 6 6 5 4 4 3 3 3 3 3 3 2 3 3 4
5 6 7 7 5 5 4 1 1 1 1 2 1 2 3 1 2 2 2 2 3 3 4 4 4 5 6 6 6 7 6 5 4 4 4 3 3 3 3 3 3 4 4 5
Wind_Direction
66 97 206 211 199 198 180 200 245 255 261 227 240 258 270 255 234 240 239 243 252 254 263 263 258 242 209 206 193 193 190 188 165 166 172 173 180 168 142 115 118 138 145 148
77 235 238 200 180 192 198 229 256 282 290 233 264 268 263 244 228 227 225 232 246 262 280 283 269 252 221 220 212 199 200 197 188 184 181 179 175 173 166 146 124 137 148 156
192 234 185 161 177 196 225 216 236 259 325 315 308 288 252 251 232 241 233 231 239 238 249 259 259 244 236 233 231 212 208 204 195 179 150 125 114 116 147 169 176 156 160 156
221 248 176 176 202 189 238 233 225 241 262 280 255 279 268 246 263 253 250 242 245 246 245 247 253 256 253 244 244 216 202 200 194 177 170 164 178 195 204 195 194 173 167 165
233 200 188 210 222 184 217 145 181 208 205 279 242 237 276 267 258 258 250 243 248 247 242 242 241 243 248 248 241 221 196 198 190 186 184 182 191 197 175 166 179 180 174 174
243 225 196 212 201 170 161 85 75 65 109 260 228 209 272 228 227 247 249 253 254 254 249 248 248 249 263 257 250 247 199 205 195 190 190 191 195 185 174 183 194 198 192 188
280 258 252 141 123 102 107 100 17 336 297 251 214 216 252 238 226 225 242 254 257 250 242 252 262 252 263 268 264 262 224 215 206 196 199 201 200 191 193 195 198 198 200 209
217 257 227 196 180 176 186 163 173 217 242 279 262 236 254 243 242 237 243 251 257 261 258 256 251 244 245 249 250 248 242 227 211 206 208 205 201 201 202 203 202 204 207 211
195 238 89 176 187 156 165 196 177 154 243 270 263 277 297 250 260 254 252 261 261 259 265 265 264 257 248 241 243 241 241 240 220 217 211 206 205 206 210 208 206 210 210 208
167 227 252 234 118 102 169 156 129 162 221 259 280 267 250 247 253 264 258 256 260 273 273 269 265 261 254 250 255 256 243 240 230 216 213 217 211 211 212 209 210 214 212 209
146 176 280 204 197 190 151 167 169 167 185 200 264 267 225 212 221 237 251 260 259 257 253 252 258 262 262 272 256 254 255 253 245 224 221 219 214 210 208 215 217 215 212 208
157 146 240 242 240 206 187 186 170 189 225 206 232 267 269 222 241 249 265 275 276 266 258 251 251 262 265 266 265 257 257 253 251 234 223 226 219 208 210 221 222 218 216 214
148 145 288 316 315 199 215 199 188 165 167 196 217 261 301 323 300 288 281 282 282 284 280 273 268 266 266 266 267 266 263 261 262 248 225 225 224 220 219 223 222 219 218 216
135 180 205 221 234 192 224 218 191 177 210 230 232 257 285 296 292 291 279 272 276 278 277 277 274 270 270 268 264 266 270 269 267 256 235 227 229 228 227 224 219 221 219 217
138 216 237 261 264 232 233 232 211 213 220 229 251 254 269 273 268 275 278 282 287 286 283 281 281 281 284 284 280 274 274 277 272 260 251 238 235 231 228 225 223 224 226 226
143 212 249 274 262 251 261 249 229 229 233 241 261 268 268 278 285 287 291 287 287 287 289 293 296 300 298 295 293 288 279 279 268 253 255 250 238 233 230 228 225 227 230 229
176 165 202 261 289 313 266 238 219 219 218 214 240 255 283 299 292 282 286 292 289 289 297 303 308 305 306 302 296 286 279 279 260 253 258 250 235 236 237 235 230 231 233 229
173 168 194 249 353 244 248 219 208 218 241 234 248 268 274 259 282 289 295 293 299 306 309 312 313 311 309 306 304 301 296 284 264 263 264 266 250 243 242 234 237 241 240 232
189 173 179 199 245 273 290 253 180 203 267 239 239 264 273 286 325 314 307 296 286 298 304 305 306 306 309 309 310 315 318 309 292 279 278 277 267 251 243 242 243 248 241 239
132 167 179 193 226 249 264 263 208 135 283 247 213 249 266 339 301 287 318 339 333 331 325 320 321 324 324 324 329 335 327 323 304 296 288 282 266 255 247 247 249 252 244 243
154 182 204 216 235 262 263 237 135 178 257 266 206 229 204 217 237 278 332 343 346 343 336 334 334 336 332 334 344 335 329 312 307 312 305 291 275 266 256 251 248 242 242 235
182 184 198 189 217 253 207 145 188 229 296 286 243 211 211 250 292 318 332 338 345 345 344 345 344 341 342 348 350 333 322 317 320 321 317 312 302 293 283 253 254 237 222 230
204 197 194 200 219 247 182 204 237 286 271 280 264 273 222 267 290 309 322 330 339 343 342 343 343 341 346 352 349 327 321 326 326 329 325 327 329 319 296 257 246 241 226 230
245 208 200 247 258 255 253 268 286 278 261 280 281 286 265 264 282 304 317 334 340 339 339 341 345 343 340 345 346 331 328 336 338 329 327 331 334 329 322 303 275 255 245 249
220 182 206 250 271 296 270 248 254 275 324 341 336 326 296 284 298 306 318 327 332 333 337 342 340 333 331 338 340 339 339 344 344 340 335 336 336 332 333 325 301 279 259 256
197 190 199 237 231 218 254 274 229 224 285 305 330 341 351 340 305 326 323 321 328 331 336 340 339 334 332 337 338 340 341 340 337 337 339 338 336 334 334 331 327 315 301 294
Height
1495 1500 1502 1502 1502 1502 1504 1507 1507 1504 1502 1503 1502 1499 1496 1495 1495 1494 1493 1493 1493 1494 1496 1496 1497 1497 1498 1498 1500 1501 1503 1505 1506 1508 1509 1511 1513 1514 1516 1518 1520 1522 1524 1526
1500 1501 1498 1499 1501 1502 1504 1506 1506 1503 1501 1502 1502 1498 1493 1491 1491 1490 1490 1489 1490 1491 1492 1492 1493 1493 1494 1495 1496 1497 1499 1501 1503 1504 1506 1508 1510 1511 1513 1515 1517 1518 1520 1522
1497 1498 1496 1498 1501 1503 1503 1505 1504 1505 1503 1502 1502 1495 1491 1489 1488 1487 1486 1487 1488 1488 1488 1488 1489 1490 1491 1491 1493 1494 1496 1498 1499 1501 1503 1505 1507 1508 1509 1511 1513 1514 1517 1518
1497 1496 1496 1498 1499 1501 1502 1501 1502 1504 1506 1507 1505 1502 1489 1487 1486 1484 1483 1484 1484 1484 1485 1485 1486 1486 1487 1488 1489 1491 1493 1494 1496 1497 1499 1500 1501 1503 1505 1507 1508 1511 1513 1514
1496 1495 1495 1496 1496 1498 1500 1500 1502 1503 1506 1509 1507 1507 1490 1487 1485 1481 1480 1480 1480 1481 1481 1481 1482 1483 1484 1485 1486 1487 1489 1491 1492 1494 1495 1497 1498 1500 1501 1503 1505 1507 1509 1510
1494 1493 1494 1494 1495 1496 1498 1501 1504 1508 1509 1508 1503 1505 1490 1486 1480 1477 1477 1477 1477 1478 1478 1479 1479 1480 1481 1482 1483 1484 1486 1487 1488 1490 1491 1493 1494 1496 1497 1499 1500 1502 1504 1506
1495 1493 1492 1492 1495 1497 1498 1503 1508 1507 1510 1503 1501 1501 1486 1477 1475 1474 1474 1474 1474 1475 1475 1475 1476 1476 1477 1478 1479 1481 1482 1484 1485 1486 1487 1489 1490 1492 1493 1494 1496 1497 1499 1501
1495 1494 1492 1492 1492 1495 1498 1500 1505 1508 1510 1505 1502 1497 1479 1474 1472 1471 1472 1472 1472 1472 1472 1472 1473 1474 1474 1476 1477 1478 1479 1480 1481 1482 1484 1485 1487 1488 1489 1491 1492 1493 1494 1497
1494 1492 1491 1490 1491 1493 1497 1501 1501 1509 1514 1512 1501 1492 1480 1471 1470 1470 1469 1469 1469 1469 1470 1470 1471 1472 1472 1473 1474 1475 1475 1476 1477 1479 1480 1481 1483 1484 1485 1486 1487 1489 1490 1492
1490 1494 1491 1491 1491 1492 1494 1498 1505 1507 1507 1506 1498 1492 1479 1470 1469 1468 1467 1466 1466 1467 1468 1468 1468 1469 1469 1470 1471 1471 1472 1473 1474 1475 1476 1477 1478 1479 1481 1482 1483 1484 1485 1487
1490 1494 1494 1493 1492 1492 1496 1499 1500 1504 1505 1505 1501 1482 1468 1466 1465 1466 1465 1464 1464 1465 1465 1465 1466 1466 1466 1467 1467 1468 1469 1469 1470 1471 1472 1473 1474 1475 1476 1477 1478 1479 1481 1482
1489 1494 1496 1492 1490 1490 1491 1493 1497 1499 1501 1505 1500 1480 1465 1464 1463 1463 1463 1462 1462 1462 1463 1463 1463 1463 1463 1463 1464 1464 1465 1465 1466 1467 1468 1468 1469 1470 1471 1472 1473 1474 1475 1477
1488 1493 1493 1489 1492 1493 1492 1492 1494 1496 1500 1504 1498 1476 1465 1463 1462 1462 1461 1460 1460 1460 1460 1460 1460 1460 1460 1460 1460 1461 1461 1461 1462 1462 1463 1463 1464 1465 1465 1467 1468 1469 1470 1470
1485 1490 1488 1483 1479 1485 1488 1488 1491 1493 1495 1494 1484 1471 1464 1463 1462 1461 1460 1458 1458 1457 1457 1456 1456 1456 1456 1456 1456 1456 1456 1457 1457 1457 1457 1458 1458 1459 1460 1461 1462 1463 1464 1465
1484 1487 1487 1484 1482 1483 1483 1482 1485 1485 1482 1482 1471 1471 1461 1461 1461 1459 1457 1456 1455 1454 1454 1453 1452 1452 1452 1452 1452 1452 1451 1452 1452 1452 1452 1452 1453 1454 1455 1455 1456 1457 1458 1458
1483 1486 1486 1484 1480 1481 1479 1475 1476 1476 1476 1475 1471 1465 1457 1458 1458 1456 1455 1454 1453 1452 1451 1450 1449 1449 1448 1447 1447 1447 1446 1447 1447 1447 1447 1447 1448 1448 1449 1449 1450 1451 1452 1452
1483 1486 1487 1484 1483 1480 1475 1467 1467 1468 1467 1468 1465 1457 1455 1457 1456 1454 1453 1452 1451 1450 1448 1447 1446 1445 1444 1443 1443 1443 1442 1442 1442 1442 1442 1442 1442 1442 1443 1444 1445 1445 1446 1446
1481 1484 1487 1487 1485 1480 1461 1462 1461 1461 1461 1461 1458 1455 1455 1454 1453 1452 1451 1450 1448 1447 1446 1444 1443 1442 1441 1440 1440 1439 1438 1438 1437 1437 1437 1437 1437 1437 1438 1438 1439 1439 1440 1440
1477 1481 1486 1486 1484 1473 1463 1461 1462 1463 1459 1456 1456 1453 1453 1452 1451 1450 1449 1449 1447 1446 1445 1443 1441 1440 1438 1437 1436 1435 1434 1434 1433 1432 1432 1432 1432 1432 1433 1433 1433 1434 1434 1434
1476 1478 1483 1485 1481 1473 1459 1459 1458 1461 1458 1451 1451 1450 1450 1451 1452 1449 1447 1446 1445 1444 1442 1441 1439 1437 1435 1434 1433 1431 1430 1430 1429 1429 1428 1428 1428 1428 1428 1428 1428 1428 1429 1429
1479 1480 1480 1480 1478 1468 1459 1457 1458 1462 1454 1449 1447 1447 1448 1449 1449 1447 1445 1444 1443 1442 1440 1439 1437 1435 1433 1431 1430 1428 1428 1427 1426 1425 1425 1424 1424 1424 1424 1424 1423 1423 1423 1423
1472 1476 1478 1477 1476 1465 1456 1457 1456 1451 1448 1447 1446 1446 1446 1446 1445 1444 1443 1442 1441 1439 1438 1436 1434 1432 1431 1429 1428 1426 1425 1424 1423 1422 1421 1421 1420 1420 1419 1419 1419 1419 1418 1418
1467 1464 1463 1463 1458 1451 1450 1449 1448 1448 1447 1445 1445 1444 1444 1443 1443 1442 1441 1440 1439 1438 1436 1434 1432 1430 1428 1427 1425 1423 1422 1421 1419 1418 1417 1417 1416 1416 1416 1415 1414 1414 1414 1414
1461 1459 1459 1458 1451 1448 1447 1446 1446 1445 1445 1444 1443 1443 1442 1441 1440 1439 1438 1437 1436 1435 1434 1432 1430 1428 1426 1425 1423 1421 1419 1417 1416 1414 1414 1413 1413 1412 1412 1411 1411 1410 1410 1410
1453 1455 1455 1453 1448 1446 1443 1443 1443 1443 1442 1441 1441 1440 1439 1438 1437 1436 1435 1434 1433 1432 1431 1429 1428 1426 1424 1422 1420 1418 1417 1415 1413 1412 1411 1410 1409 1409 1408 1408 1408 1407 1407 1407
1448 1449 1449 1444 1441 1442 1440 1440 1440 1440 1439 1439 1438 1437 1437 1436 1435 1434 1433 1432 1431 1430 1428 1427 1425 1423 1421 1420 1418 1416 1414 1412 1411 1409 1408 1407 1406 1406 1405 1404 1404 1403 1404 1403